Flag for French Polynesia Weather past 2 weeks in Taiohae, Marquesas Islands, French Polynesia

Now
81 °F

Scattered clouds.


Feels Like: 86 °F
Forecast: 77 / 82 °F
Wind: 7 mph from East

Location: Atuona

Current Time: Jun 30, 2015 at 5:03:45 PM

Latest Report: Jun 30, 2015 at 3:30 PM


Visibility: 25 mi

Pressure: 29.78 "Hg

Humidity: 72%

Dew point: 71 °F

Location of TaiohaeLocation

Historic Weather in Taiohae — Graph

°F

Taiohae temperature yesterday

Maximum temperature yesterday: 84 °F (at 12:30 PM)
Minimum temperature yesterday: 76 °F (at 7:30 PM)
Average temperature yesterday: 79 °F

Past Weeks' High & Low Weather Summary

 TemperatureHumidityPressure
High85 °F (Jun 26, 9:30 AM)91% (Jun 19, 3:30 AM)29.94 "Hg (Jun 19, 3:30 AM)
Low72 °F (Jun 26, 1:30 AM)53% (Jun 16, 10:30 AM)29.73 "Hg (Jun 23, 3:30 PM)
Average78 °F77%29.85 "Hg
* Reported Jun 15 3:30 PM — Jun 30 3:30 PM, Taiohae, Weather by CustomWeather, © 2015

Note: Actual official high and low records may vary slightly from our data, if they occured in-between our weather recording intervals... More about our weather records

Advertising

Taiohae weather history for previous 24 hours

 ConditionsComfort  
Time TempWeatherWind HumidityBarometerVisibility
3:30 PM
Tue, Jun 30
81 °FScattered clouds.7 mph72%29.78 "Hg25 mi
2:30 PM81 °FScattered clouds.10 mph71%29.78 "Hg25 mi
1:30 PM82 °FScattered clouds.16 mph69%29.79 "Hg25 mi
12:30 PM82 °FScattered clouds.14 mph71%29.81 "Hg25 mi
11:30 AM83 °FPassing clouds.13 mph70%29.83 "Hg25 mi
10:30 AM84 °FPassing clouds.14 mph71%29.86 "Hg25 mi
9:30 AM82 °FScattered clouds.10 mph74%29.87 "Hg25 mi
8:30 AM81 °FScattered clouds.9 mph74%29.87 "Hg25 mi
6:30 AM75 °FScattered clouds.1 mph85%29.85 "Hg25 mi
4:30 AM74 °FMild.2 mph84%29.83 "HgN/A
3:30 AM75 °FMild.No wind84%29.83 "HgN/A
2:30 AM76 °FMild.2 mph82%29.83 "HgN/A
1:30 AM75 °FMild.2 mph82%29.85 "HgN/A
12:30 AM78 °FWarm.3 mph77%29.87 "HgN/A
11:30 PM
Mon, Jun 29
78 °FWarm.5 mph78%29.88 "HgN/A
10:30 PM77 °FWarm.2 mph80%29.88 "HgN/A
9:30 PM78 °FWarm.7 mph79%29.88 "HgN/A
8:30 PM78 °FWarm.5 mph78%29.88 "HgN/A
7:30 PM76 °FMild.2 mph81%29.87 "HgN/A
6:30 PM78 °FWarm.2 mph75%29.85 "HgN/A
5:30 PM79 °FWarm.3 mph72%29.84 "HgN/A
Weather by CustomWeather, © 2015

See weather overviewHow to use our weather pages